| time (UTC) | temp F | wind direction | speed knots | gust knots | rain 1hr in | rain 24hr in | rain mn in | humidity % | barometer mb |
| 20260504044543 | 45 | 0 | 0.0 | 0.9 | 0.00 | 0.00 | 0.00 | 71 | 1012.1 |
| 20260504043040 | 46 | 0 | 0.0 | 0.0 | 0.00 | 0.00 | 0.00 | 69 | 1012.1 |
| 20260504041538 | 47 | 0 | 0.0 | 0.9 | 0.00 | 0.00 | 0.00 | 69 | 1012.1 |
| 20260504040046 | 48 | 0 | 0.0 | 1.7 | 0.00 | 0.00 | 0.00 | 68 | 1012.2 |
| 20260504034555 | 48 | 0 | 0.0 | 0.0 | 0.00 | 0.00 | 0.00 | 65 | 1012.3 |
| 20260504033050 | 49 | 0 | 0.0 | 0.0 | 0.00 | 0.00 | 0.00 | 62 | 1012.3 |
| 20260504031541 | 50 | 0 | 0.0 | 0.0 | 0.00 | 0.00 | 0.00 | 56 | 1012.4 |
| 20260504030045 | 51 | 0 | 0.0 | 0.0 | 0.00 | 0.00 | 0.00 | 58 | 1012.4 |
| 20260504024537 | 51 | 0 | 0.0 | 0.0 | 0.00 | 0.00 | 0.00 | 53 | 1012.5 |
| 20260504023057 | 51 | 0 | 0.0 | 0.9 | 0.00 | 0.00 | 0.00 | 55 | 1012.7 |
| 20260504021539 | 52 | 0 | 0.0 | 0.0 | 0.00 | 0.00 | 0.00 | 52 | 1012.7 |
| 20260504020039 | 52 | 0 | 0.0 | 2.6 | 0.00 | 0.00 | 0.00 | 52 | 1012.7 |
| 20260504014546 | 52 | 133 | 1.7 | 8.7 | 0.00 | 0.00 | 0.00 | 52 | 1012.7 |
| 20260504013044 | 52 | 208 | 2.6 | 10.4 | 0.00 | 0.00 | 0.00 | 51 | 1012.9 |
| 20260504011536 | 53 | 355 | 2.6 | 10.4 | 0.00 | 0.00 | 0.00 | 48 | 1012.9 |
| 20260504010051 | 53 | 46 | 0.9 | 10.4 | 0.00 | 0.00 | 0.00 | 48 | 1012.6 |
| 20260504004555 | 52 | 188 | 2.6 | 9.6 | 0.00 | 0.00 | 0.00 | 51 | 1012.6 |
| 20260504003039 | 52 | 182 | 1.7 | 7.0 | 0.00 | 0.00 | 0.00 | 52 | 1012.7 |
| 20260504001537 | 52 | 0 | 0.0 | 11.3 | 0.00 | 0.00 | 0.00 | 51 | 1012.3 |
| 20260504000037 | 53 | 52 | 0.0 | 2.6 | 0.00 | 0.00 | 0.00 | 51 | 1012.4 |
| 20260503234546 | 53 | 99 | 0.9 | 7.8 | 0.00 | 0.00 | 0.00 | 49 | 1012.3 |
| 20260503233039 | 53 | 55 | 4.3 | 16.5 | 0.00 | 0.00 | 0.00 | 49 | 1012.2 |
| 20260503231541 | 53 | 157 | 0.9 | 5.2 | 0.00 | 0.00 | 0.00 | 49 | 1011.6 |
| 20260503230039 | 53 | 0 | 0.0 | 0.0 | 0.00 | 0.00 | 0.00 | 48 | 1011.3 |
| 20260503224536 | 53 | 0 | 0.0 | 1.7 | 0.00 | 0.00 | 0.00 | 48 | 1011.4 |
| 20260503223036 | 53 | 0 | 0.0 | 1.7 | 0.00 | 0.00 | 0.00 | 48 | 1011.4 |
| 20260503221544 | 53 | 0 | 0.0 | 5.2 | 0.00 | 0.00 | 0.00 | 47 | 1011.6 |
| 20260503220043 | 55 | 0 | 0.0 | 2.6 | 0.00 | 0.00 | 0.00 | 46 | 1011.7 |
| 20260503214536 | 55 | 0 | 0.0 | 5.2 | 0.00 | 0.00 | 0.00 | 47 | 1011.7 |
| 20260503213051 | 55 | 159 | 0.9 | 6.1 | 0.00 | 0.00 | 0.00 | 46 | 1011.7 |
| 20260503211537 | 54 | 0 | 1.7 | 5.2 | 0.00 | 0.00 | 0.00 | 47 | 1011.8 |
| 20260503210053 | 53 | 61 | 0.9 | 6.1 | 0.00 | 0.00 | 0.00 | 48 | 1011.9 |
| 20260503204548 | 53 | 0 | 1.7 | 8.7 | 0.00 | 0.00 | 0.00 | 49 | 1012.0 |
| 20260503203037 | 52 | 207 | 2.6 | 9.6 | 0.00 | 0.00 | 0.00 | 48 | 1012.1 |
| 20260503201538 | 53 | 0 | 0.0 | 3.5 | 0.00 | 0.00 | 0.00 | 47 | 1012.2 |
| 20260503200039 | 54 | 26 | 0.0 | 7.8 | 0.00 | 0.00 | 0.00 | 49 | 1012.3 |
| 20260503194543 | 53 | 111 | 0.9 | 7.0 | 0.00 | 0.00 | 0.00 | 46 | 1012.4 |
| 20260503193049 | 52 | 5 | 0.9 | 7.0 | 0.00 | 0.00 | 0.00 | 47 | 1012.7 |
| 20260503191538 | 53 | 0 | 0.9 | 6.1 | 0.00 | 0.00 | 0.00 | 45 | 1012.6 |
| 20260503190038 | 55 | 269 | 0.0 | 6.1 | 0.00 | 0.00 | 0.00 | 42 | 1012.7 |
| 20260503184548 | 55 | 23 | 0.0 | 5.2 | 0.00 | 0.00 | 0.00 | 49 | 1012.8 |
| 20260503183057 | 55 | 53 | 0.9 | 7.0 | 0.00 | 0.00 | 0.00 | 45 | 1012.8 |
| 20260503181537 | 52 | 0 | 0.0 | 7.8 | 0.00 | 0.00 | 0.00 | 49 | 1012.8 |
| 20260503180043 | 52 | 33 | 0.0 | 5.2 | 0.00 | 0.00 | 0.00 | 45 | 1013.2 |
| 20260503174537 | 53 | 5 | 0.9 | 7.0 | 0.00 | 0.00 | 0.00 | 46 | 1013.3 |
| 20260503173101 | 53 | 21 | 0.9 | 7.0 | 0.00 | 0.00 | 0.00 | 47 | 1013.4 |
| 20260503171541 | 51 | 0 | 0.9 | 9.6 | 0.00 | 0.00 | 0.00 | 44 | 1013.5 |
| 20260503081541 | 36 | 21 | 0.9 | 1.7 | 0.00 | 0.00 | 0.00 | 83 | 1014.3 |
| 20260503071539 | 37 | 19 | 0.9 | 2.6 | 0.00 | 0.00 | 0.00 | 81 | 1014.4 |